CO3D 1
Last updated on Sun Jun 21 2026 00:02:53 GMT+0000 (Coordinated Universal Time)
1 64903U 25156E 26171.05079051 .00004283 00000+0 20076-3 0 9999
2 64903 97.4325 249.6020 0001352 114.2620 245.8756 15.20215547 49961
Next 0 passes for location: London (51.5072 / 0.1276)
No passes found over London.